Weather History for Erzurum, Turkey

Change the Weather History Date:

Thursday, December 20, 2012

  Actual Average Record
Temperature  
Mean Temperature 36 °F -  
Max Temperature 41 °F 27 °F 44 °F (2006)
Min Temperature 30 °F 13 °F -13 °F (1997)
Degree Days  
Heating Degree Days 30    
Moisture  
Dew Point 31 °F    
Average Humidity 93    
Maximum Humidity 100    
Minimum Humidity 70    
Precipitation  
Precipitation 0.04 in 0.03 in - ()
Sea Level Pressure  
Sea Level Pressure 29.82 in    
Wind  
Wind Speed 10 mph ()    
Max Wind Speed 18 mph    
Max Gust Speed 29 mph    
Visibility 5.0 miles    
Events Snow    
Averages and records for this station are not official NWS values.
T = Trace of Precipitation, MM = Missing Value Source: Averaged Metar Reports

Daily Weather History Graph

Daily Weather History Graph

Search for Another Location

Airport:

Trip Planner

Search our weather history database for the weather conditions in past years. The results will help you decide how hot, cold, wet, or windy it might be!

Date:

Astronomy

Dec. 20, 2012 Rise Set
Actual Time 6:33 AM EET 3:53 PM EET
Civil Twilight 6:02 AM EET 4:23 PM EET
Nautical Twilight 5:28 AM EET 4:57 PM EET
Astronomical Twilight 4:55 AM EET 5:30 PM EET
Moon 11:00 AM EET 11:58 PM EET
Length of Visible Light 10h 21m
Length of Day
9h 20m
First Quarter, 52% of the Moon is Illuminated
Dec 20
First Quarter
Dec 28
Full
Jan 5
Last Quarter
Jan 11
New
Jan 19
First Quarter

Hourly Weather History & Observations

Time (EET) Temp. Windchill Dew Point Humidity Pressure Visibility Wind Dir Wind Speed Gust Speed Precip Events Conditions
12:20 AM 32.0 °F 24.8 °F 32.0 °F 100% 29.98 in 2.5 mi ENE 8.1 mph - N/A Snow Light Snow
12:50 AM 32.0 °F 24.2 °F 32.0 °F 100% 29.98 in 3.7 mi NE 9.2 mph - N/A Snow Light Snow
1:20 AM 32.0 °F 24.8 °F 32.0 °F 100% 29.98 in 4.3 mi East 8.1 mph - N/A Snow Light Snow
1:50 AM 32.0 °F 26.4 °F 32.0 °F 100% 29.98 in 3.7 mi East 5.8 mph - N/A Snow Light Snow
2:00 AM 32 °F - 32 °F 98%  in 4 mi East 5.8 mph - - Snow Light Snow
2:20 AM 32.0 °F 27.5 °F 32.0 °F 100% 29.98 in 3.7 mi East 4.6 mph - N/A Snow Light Snow
2:50 AM 30.2 °F 22.6 °F 30.2 °F 100% 29.95 in 3.7 mi East 8.1 mph - N/A Snow Light Snow
3:20 AM 32.0 °F 24.8 °F 30.2 °F 93% 29.95 in 3.7 mi East 8.1 mph - N/A Snow Light Snow
3:50 AM 32.0 °F 23.6 °F 30.2 °F 93% 29.92 in 4.3 mi East 10.4 mph - N/A   Mostly Cloudy
4:20 AM 32.0 °F 23.6 °F 30.2 °F 93% 29.92 in 4.3 mi ENE 10.4 mph - N/A   Mostly Cloudy
4:50 AM 32.0 °F 22.5 °F 32.0 °F 100% 29.92 in 4.3 mi ENE 12.7 mph - N/A Snow Light Snow
5:20 AM 32.0 °F 23.6 °F 30.2 °F 93% 29.92 in 4.3 mi ENE 10.4 mph - N/A   Mostly Cloudy
5:50 AM 30.2 °F 18.9 °F 30.2 °F 100% 29.89 in 4.3 mi East 16.1 mph - N/A   Mostly Cloudy
6:20 AM 32.0 °F 22.5 °F 30.2 °F 93% 29.89 in 4.3 mi East 12.7 mph - N/A   Mostly Cloudy
6:50 AM 33.8 °F 24.8 °F 30.2 °F 87% 29.89 in 5.0 mi East 12.7 mph - N/A   Mostly Cloudy
7:20 AM 32.0 °F 21.6 °F 30.2 °F 93% 29.86 in 5.0 mi East 15.0 mph - N/A   Mostly Cloudy
7:50 AM 33.8 °F 25.8 °F 30.2 °F 87% 29.86 in 6.2 mi East 10.4 mph - N/A   Mostly Cloudy
8:00 AM 34 °F - 31 °F 82%  in 12 mi East 10.4 mph - -   Partly Cloudy
8:50 AM 37.4 °F 29.8 °F 32.0 °F 81% 29.86 in 6.2 mi ENE 11.5 mph - N/A   Mostly Cloudy
9:20 AM 37.4 °F 30.3 °F 32.0 °F 81% 29.86 in 6.2 mi ESE 10.4 mph - N/A   Mostly Cloudy
9:50 AM 35.6 °F 25.5 °F 32.0 °F 87% 29.83 in 6.2 mi East 17.3 mph - N/A   Mostly Cloudy
10:20 AM 35.6 °F 27.1 °F 32.0 °F 87% 29.83 in 6.2 mi East 12.7 mph - N/A   Mostly Cloudy
10:50 AM 37.4 °F 30.3 °F 32.0 °F 81% 29.83 in 6.2 mi SE 10.4 mph - N/A   Mostly Cloudy
11:20 AM 39.2 °F 35.9 °F 30.2 °F 70% 29.80 in 6.2 mi East 4.6 mph - N/A   Mostly Cloudy
11:50 AM 39.2 °F 32.5 °F 30.2 °F 70% 29.77 in 6.2 mi ESE 10.4 mph - N/A   Mostly Cloudy
12:20 PM 37.4 °F 29.3 °F 32.0 °F 81% 29.77 in 6.2 mi East 12.7 mph - N/A   Mostly Cloudy
12:50 PM 37.4 °F 28.9 °F 32.0 °F 81% 29.77 in 6.2 mi East 13.8 mph - N/A   Mostly Cloudy
1:20 PM 35.6 °F 25.2 °F 32.0 °F 87% 29.77 in 6.2 mi East 18.4 mph - N/A   Mostly Cloudy
1:50 PM 33.8 °F 23.5 °F 32.0 °F 93% 29.77 in 6.2 mi East 16.1 mph 28.8 mph N/A   Mostly Cloudy
2:00 PM 34 °F - 31 °F 84%  in 12 mi East 16.1 mph - -   Partly Cloudy
2:20 PM 33.8 °F 24.3 °F 32.0 °F 93% 29.77 in 2.5 mi East 13.8 mph - N/A Snow Light Snow
2:50 PM 33.8 °F 25.3 °F 32.0 °F 93% 29.77 in 2.5 mi East 11.5 mph - N/A Snow Light Snow
3:20 PM 33.8 °F 24.8 °F 32.0 °F 93% 29.77 in 2.5 mi East 12.7 mph - N/A Snow Light Snow
3:50 PM 33.8 °F 24.8 °F 32.0 °F 93% 29.77 in 2.5 mi ESE 12.7 mph - N/A Snow Light Snow
4:20 PM 32.0 °F 23.0 °F 32.0 °F 100% 29.77 in 2.5 mi East 11.5 mph - N/A Snow Light Snow
4:50 PM 32.0 °F 24.2 °F 32.0 °F 100% 29.74 in 3.7 mi East 9.2 mph - N/A Snow Light Snow
5:20 PM 33.8 °F 25.8 °F 32.0 °F 93% 29.77 in 6.2 mi ENE 10.4 mph - N/A   Mostly Cloudy
5:50 PM 32.0 °F 22.1 °F 32.0 °F 100% 29.74 in 6.2 mi East 13.8 mph - N/A   Mostly Cloudy
6:20 PM 32.0 °F 21.6 °F 32.0 °F 100% 29.74 in 6.2 mi East 15.0 mph - N/A   Mostly Cloudy
6:50 PM 32.0 °F 21.2 °F 30.2 °F 93% 29.74 in 6.2 mi East 16.1 mph - N/A   Mostly Cloudy
7:20 PM 32.0 °F 21.2 °F 30.2 °F 93% 29.74 in 6.2 mi East 16.1 mph - N/A   Mostly Cloudy
7:50 PM 32.0 °F 21.6 °F 30.2 °F 93% 29.74 in 6.2 mi East 15.0 mph - N/A   Mostly Cloudy
8:00 PM 33 °F - 31 °F 87%  in 6 mi East 15.0 mph - -   Partly Cloudy
8:20 PM 32.0 °F 20.8 °F 30.2 °F 93% 29.74 in 1.2 mi ESE 17.3 mph - N/A Snow Light Snow
8:50 PM 30.2 °F 21.3 °F 30.2 °F 100% 29.74 in 1.0 mi East 10.4 mph - N/A Snow Light Snow
9:20 PM 30.2 °F 21.3 °F 30.2 °F 100% 29.71 in 3.7 mi East 10.4 mph - N/A Snow Light Snow
9:50 PM 30.2 °F 21.3 °F 30.2 °F 100% 29.74 in 5.0 mi ENE 10.4 mph - N/A   Mostly Cloudy
10:20 PM 30.2 °F 22.6 °F 30.2 °F 100% 29.74 in 3.7 mi East 8.1 mph - N/A   Mostly Cloudy
10:50 PM 32.0 °F - 32.0 °F 100% 29.74 in - SE 2.3 mph - N/A Snow Light Snow
11:20 PM 30.2 °F - 30.2 °F 100% 29.71 in 6.2 mi Calm Calm - N/A   Mostly Cloudy
11:50 PM 30.2 °F - 30.2 °F 100% 29.71 in 5.0 mi Calm Calm - N/A   Mostly Cloudy